Temperature
29 28 27 26 26 28 28 29 28 28 27 26 25 25 25 25 25 25 25 24 24 23 23 22 22 22 21 21 20 20 20 19 19 19 18 18 18 18 18 18 18 18 17 17
29 29 29 28 28 29 29 29 29 29 27 26 25 25 25 25 24 24 24 23 23 23 22 22 22 21 21 21 21 20 20 19 19 18 18 18 18 17 17 17 17 17 17 17
27 29 29 28 29 29 29 30 29 28 27 26 24 24 24 23 23 23 22 22 21 21 21 21 21 21 20 20 20 20 19 19 19 18 18 17 17 17 17 17 17 17 16 16
26 27 25 28 30 30 29 29 29 27 26 25 23 22 21 21 21 21 20 20 20 19 19 19 19 19 19 19 19 19 19 18 18 18 17 17 17 17 16 16 16 16 16 16
25 26 26 27 27 27 27 27 27 26 25 23 21 21 20 20 19 19 18 18 18 18 17 18 18 18 18 18 17 17 17 16 17 17 17 16 16 16 16 16 15 15 15 15
24 25 24 25 25 25 25 24 26 25 24 23 22 21 20 18 18 17 17 16 16 16 16 16 16 16 16 16 16 16 15 15 15 15 15 15 15 15 15 15 15 14 14 14
25 25 24 24 23 24 23 23 25 25 24 23 23 21 18 17 17 16 16 15 15 15 15 15 15 15 15 15 15 14 14 14 14 14 14 14 14 14 14 14 14 14 13 13
24 24 22 22 22 22 22 23 24 24 22 21 19 18 17 17 16 15 15 15 15 15 14 14 14 14 14 14 13 13 13 13 13 13 13 13 13 12 12 13 13 13 13 13
21 21 20 20 20 20 21 22 23 22 21 19 18 17 16 16 15 15 15 14 14 14 13 13 13 13 13 12 12 12 12 12 12 12 12 12 12 12 12 12 12 12 12 12
19 19 19 20 20 20 21 22 22 21 20 19 18 17 16 15 15 14 14 14 13 13 13 12 12 12 11 11 11 11 11 11 11 11 11 12 12 11 11 11 11 11 10 10
19 19 19 19 20 20 21 21 21 20 19 18 17 16 15 15 14 14 14 13 13 12 12 12 11 11 11 11 11 11 11 11 11 11 11 11 11 11 11 11 10 10 10 9
19 19 19 19 20 20 20 20 19 19 18 17 16 16 15 14 14 14 13 13 13 12 12 12 11 11 11 11 10 10 10 10 10 11 11 11 11 11 11 11 10 10 10 9
20 20 20 20 20 20 19 18 18 17 17 16 15 15 14 14 13 13 13 12 12 12 12 11 11 11 11 10 10 10 10 10 10 10 10 10 10 10 10 10 10 10 9 9
19 19 19 19 19 18 17 17 16 16 15 15 14 14 13 13 13 12 12 12 12 12 12 11 11 10 10 10 10 10 10 10 10 10 10 10 10 10 10 9 9 9 8 8
19 19 18 18 17 17 16 16 15 15 14 14 13 13 13 12 12 12 12 11 11 11 11 11 10 10 10 9 9 9 9 9 9 9 9 9 9 9 9 8 8 8 7 7
18 18 17 17 16 16 15 15 14 14 13 13 13 12 12 12 12 11 11 11 11 11 10 10 10 9 9 9 9 9 9 9 9 9 9 9 8 8 8 7 7 6 6 5
17 17 16 16 15 15 15 14 14 13 13 13 12 12 12 11 11 11 11 11 10 10 10 9 9 9 9 9 8 8 8 8 8 8 8 7 7 6 6 6 5 5 4 4
16 16 15 15 15 14 14 13 13 13 12 12 12 12 11 11 11 11 11 10 10 10 9 9 9 9 8 8 8 8 8 8 7 7 7 6 5 5 5 4 4 3 3 2
15 14 14 14 14 13 13 13 13 13 12 12 12 12 11 11 11 11 10 10 10 9 9 9 8 8 7 7 7 7 7 7 6 6 5 5 4 4 3 3 2 2 2 1
14 14 13 13 13 13 13 12 12 12 12 12 12 11 11 11 11 10 10 10 9 9 8 8 8 7 7 6 6 6 6 6 5 5 4 4 3 3 2 2 1 1 1 1
13 13 13 13 13 13 12 12 12 12 12 11 11 11 11 10 10 10 10 9 9 8 8 7 7 7 6 6 6 5 5 4 4 3 3 3 2 2 2 1 1 1 0 0
12 12 12 12 12 12 12 12 12 12 11 11 11 11 10 10 10 9 9 8 8 7 7 6 6 6 5 5 5 4 4 3 3 3 2 2 2 1 1 1 1 0 0 -0
12 12 12 12 12 12 12 12 11 11 11 10 10 10 10 9 9 9 8 7 7 7 6 6 5 5 4 4 4 3 3 2 2 2 2 1 1 1 1 1 0 0 0 -0
11 11 11 11 11 11 11 11 11 10 10 10 10 9 9 9 8 8 7 7 6 6 5 5 4 4 4 3 3 3 2 2 2 2 1 1 1 1 1 0 0 0 -0 -0
11 11 11 11 11 11 10 10 10 10 10 9 9 8 8 8 7 7 6 6 5 5 4 4 4 3 3 3 2 2 2 1 1 1 1 1 1 1 0 0 0 -0 -0 -1
10 11 10 10 10 10 10 10 9 9 9 9 8 8 7 7 6 6 5 5 5 4 4 4 3 3 3 3 2 2 2 2 1 1 1 1 0 0 0 -0 -0 -1 -1 -1
10 10 10 10 10 9 9 9 9 8 8 8 7 7 7 6 6 5 5 5 4 4 4 3 3 3 3 3 2 2 2 2 1 1 1 0 0 -0 -0 -1 -1 -1 -1 -1
Wind_Speed
15 10 10 13 16 15 12 11 8 4 3 7 8 7 5 4 4 6 6 6 7 9 9 9 8 8 8 9 8 9 9 9 9 9 9 8 8 8 8 9 11 9 9 9
16 15 14 14 15 14 12 10 9 5 4 11 10 7 6 6 6 6 6 6 6 7 8 8 7 7 6 5 5 6 6 6 6 6 5 6 6 6 7 7 8 8 8 9
15 14 13 14 12 11 9 8 6 2 7 12 10 8 7 7 7 7 7 7 8 7 7 7 6 6 6 5 5 5 4 3 3 3 2 1 2 2 3 4 5 6 6 6
13 11 14 9 6 6 6 4 2 7 11 13 13 11 10 10 11 11 11 11 11 10 10 9 9 8 8 8 8 8 7 5 5 5 5 4 3 3 2 2 2 3 4 4
10 13 11 7 2 2 2 1 4 9 14 15 15 14 12 12 12 13 13 13 13 13 13 13 12 11 12 12 12 12 12 10 10 8 7 6 5 4 3 3 3 3 4 4
11 10 7 3 3 6 3 1 4 10 13 17 14 8 9 12 13 14 14 14 14 15 16 15 13 12 13 13 13 12 11 10 9 9 8 7 6 5 4 4 4 4 4 4
13 8 2 3 4 3 2 3 5 8 10 12 9 10 14 15 15 15 15 15 15 15 14 13 12 13 13 13 12 11 10 10 9 7 6 6 6 5 4 4 4 4 4 5
10 9 2 6 5 2 2 3 6 10 13 16 19 20 18 17 16 15 15 15 14 14 13 12 11 11 12 11 9 8 8 7 6 6 6 6 5 4 4 4 4 4 3 4
1 2 5 7 7 4 3 3 8 13 18 21 21 20 19 17 15 15 14 13 13 13 12 11 10 10 11 9 7 7 6 5 4 4 3 3 4 4 4 3 4 5 6 6
2 4 4 5 6 4 1 4 8 13 18 20 20 19 18 16 14 13 13 12 11 11 11 9 9 8 8 6 6 5 5 4 3 2 2 2 3 4 4 4 4 5 5 6
4 4 5 6 3 2 5 8 10 14 17 18 19 18 17 14 13 12 11 10 9 9 8 8 7 6 7 6 6 6 6 5 5 4 3 2 3 3 2 1 1 2 3 4
4 4 4 5 4 7 10 12 14 17 18 17 18 18 16 14 12 12 11 9 8 8 7 7 7 6 6 6 6 6 6 7 7 6 4 4 4 4 3 4 5 8 6 4
5 5 7 8 9 11 14 16 17 18 18 17 16 16 16 14 12 11 9 8 7 6 6 6 5 5 5 5 5 5 6 6 6 7 7 7 6 6 5 4 4 5 6 5
7 8 10 12 13 15 18 19 19 19 18 17 16 15 14 13 11 10 9 8 7 6 6 5 5 5 5 4 4 5 6 6 5 5 6 7 7 7 7 7 6 4 2 4
9 11 14 15 16 17 18 18 18 17 17 16 15 13 12 11 10 9 7 6 5 5 6 5 5 5 5 6 6 7 7 6 5 7 8 8 7 7 8 8 8 7 6 5
13 15 16 17 17 17 17 17 17 16 15 14 13 11 11 9 8 7 5 4 3 4 4 3 4 5 4 5 7 7 6 5 6 7 8 7 7 8 8 9 9 8 9 9
13 14 15 15 16 16 16 15 14 13 12 11 10 9 8 7 6 4 3 3 3 2 2 3 3 4 5 5 7 8 8 7 6 7 6 7 8 8 8 8 9 9 9 9
15 15 14 14 14 14 14 13 11 10 9 8 7 6 5 4 3 3 1 1 2 2 3 4 4 3 4 6 6 7 8 8 7 7 7 7 7 8 8 8 9 10 10 10
16 15 14 13 12 11 10 9 8 7 7 6 5 4 3 2 2 1 0 1 1 2 3 4 3 3 5 7 7 6 7 7 7 7 7 7 7 8 8 8 9 9 10 10
14 13 12 11 10 9 8 7 6 5 5 4 3 3 2 1 1 1 3 3 2 2 3 4 3 4 5 6 7 7 6 7 7 7 7 7 8 8 8 8 9 9 9 9
11 9 8 7 7 6 5 4 4 4 3 2 1 1 1 1 1 1 1 3 4 4 3 4 4 5 5 6 7 5 6 7 7 7 7 7 7 7 7 8 8 8 9 9
7 6 5 5 4 3 2 2 2 2 2 1 2 2 1 1 2 4 5 4 5 4 3 5 5 7 8 7 5 6 7 7 7 6 6 6 6 7 7 8 8 8 8 8
5 5 5 4 3 2 2 2 3 3 2 2 2 2 2 2 1 2 4 5 5 6 6 6 6 7 9 5 5 6 6 6 6 6 6 6 6 6 7 8 7 8 8 8
4 4 4 4 4 3 3 3 3 3 2 2 2 2 2 2 4 6 7 8 8 6 6 6 4 5 6 3 5 6 6 6 6 6 6 6 6 7 7 7 8 8 8 10
2 3 2 3 3 3 2 2 2 2 2 2 3 4 4 4 5 6 6 7 6 4 5 5 1 3 3 5 6 5 5 5 5 6 6 7 7 7 7 8 9 9 9 9
2 2 2 2 3 3 3 3 2 2 1 1 3 3 5 5 6 5 5 6 5 3 3 3 2 0 3 4 4 4 4 4 4 5 6 7 8 8 8 9 11 10 10 10
2 1 0 1 2 3 3 3 3 2 2 2 3 3 4 4 4 4 5 5 4 4 3 3 3 4 4 4 4 4 4 5 6 7 7 7 8 8 9 10 9 9 10 11
Wind_Direction
252 221 192 218 237 246 248 253 261 257 154 133 122 129 136 133 128 130 141 155 152 151 153 160 163 164 170 175 179 184 182 191 199 203 204 206 211 211 209 209 214 212 216 218
251 245 218 222 228 236 243 247 251 250 123 112 106 112 112 103 101 113 126 138 131 137 140 145 148 151 160 161 163 163 172 180 183 190 195 204 210 214 214 214 220 216 219 224
250 253 253 238 233 237 236 241 244 235 124 122 112 103 95 96 91 85 90 88 88 88 103 110 115 123 129 123 112 107 104 98 105 122 127 200 222 209 225 231 234 236 237 238
244 245 247 252 254 256 240 211 156 128 124 120 113 99 82 79 87 81 73 76 82 83 80 83 82 82 82 81 76 77 73 68 71 77 73 62 54 51 43 18 317 287 279 273
242 236 240 253 278 301 282 153 128 126 124 120 120 111 88 79 81 85 82 77 75 75 74 72 71 72 75 70 67 64 58 51 48 49 58 56 48 37 32 16 342 315 302 297
235 234 233 234 37 19 20 90 107 131 139 142 147 131 115 101 92 89 84 81 79 76 74 69 65 69 75 70 66 60 56 50 45 46 46 43 40 34 21 4 343 328 324 317
228 226 193 45 65 35 227 162 120 119 132 150 147 121 123 112 102 96 91 87 84 80 76 72 69 70 71 68 64 60 57 53 44 39 51 47 30 16 358 349 338 315 305 301
238 227 159 34 65 51 76 91 114 114 118 115 112 117 119 116 111 105 99 94 89 84 79 73 72 74 71 64 60 57 55 51 39 27 25 38 17 350 336 330 316 310 316 321
357 82 77 63 66 32 20 96 108 114 119 122 124 126 124 120 114 108 102 97 92 90 84 75 68 68 70 62 55 52 45 39 27 18 12 7 347 331 332 342 348 3 5 356
88 84 71 71 78 43 16 90 102 118 124 127 126 126 124 119 114 108 103 100 99 95 90 83 76 72 71 59 46 38 24 7 338 311 299 355 334 326 347 356 7 6 352 342
89 80 66 47 43 83 83 85 99 112 117 122 123 123 120 117 114 110 105 100 98 97 95 92 87 79 70 57 36 19 358 341 324 317 325 322 293 290 294 292 256 262 303 312
71 73 99 94 78 90 96 96 100 106 109 114 118 119 118 114 109 106 103 99 96 94 91 87 80 72 64 53 34 11 351 344 336 332 341 326 315 316 279 260 227 224 235 264
67 67 88 91 87 92 95 97 98 100 103 105 106 110 109 106 102 99 95 90 85 83 82 81 77 70 59 47 27 4 336 323 325 332 333 330 327 322 321 306 258 240 243 251
76 81 86 86 88 93 98 99 98 98 98 100 101 102 101 99 96 91 84 76 73 71 67 66 62 57 46 29 8 338 319 317 320 324 324 322 321 324 326 327 327 327 270 245
79 91 97 96 95 97 99 101 100 98 97 96 96 97 96 95 93 87 78 70 62 56 53 46 46 42 28 11 358 335 323 326 338 328 317 317 326 329 330 332 331 338 344 336
90 93 96 98 97 98 98 99 99 98 97 95 92 91 90 90 87 84 80 73 66 59 53 44 36 23 15 7 346 324 315 319 319 315 313 329 343 343 340 339 340 345 343 346
101 101 102 102 101 100 98 98 99 99 99 99 99 99 98 96 95 90 75 67 70 68 65 65 42 17 11 17 351 329 328 329 322 323 348 0 354 344 342 347 347 344 341 350
92 94 95 99 100 101 101 100 100 102 104 107 109 109 113 115 108 106 95 76 79 68 60 58 40 14 18 30 2 333 326 332 343 352 357 5 351 342 351 352 347 344 340 340
91 93 93 93 94 94 95 96 98 102 106 106 102 97 91 83 83 110 91 72 90 92 71 68 40 4 20 38 358 319 329 343 351 357 357 1 353 357 356 351 347 343 339 337
90 92 94 94 93 95 93 91 89 86 86 91 93 88 76 43 357 61 101 84 67 62 75 65 36 19 19 28 347 328 350 359 1 360 0 359 355 354 354 351 348 344 340 338
90 91 95 96 93 90 85 81 84 86 80 68 52 43 33 4 359 79 120 107 77 48 63 95 55 29 23 357 320 344 13 14 5 3 2 360 355 352 353 351 346 341 340 337
86 83 78 75 72 68 70 84 96 85 58 19 8 13 7 357 70 84 76 81 89 47 53 67 53 39 11 342 351 16 26 19 10 6 5 358 354 354 354 349 343 341 341 339
72 57 45 39 39 35 34 35 47 46 26 12 353 346 351 25 52 93 94 77 84 71 66 60 48 25 353 347 18 29 32 23 11 3 3 0 358 356 352 345 341 340 339 337
46 35 26 13 0 7 21 18 33 32 8 359 17 44 58 76 80 82 93 92 78 81 83 78 38 5 338 7 29 35 36 24 12 4 7 3 358 357 354 347 346 346 345 347
23 3 2 339 330 353 14 357 12 33 41 56 53 56 61 69 80 88 94 103 118 121 113 116 130 330 1 41 40 34 40 31 10 357 1 2 2 1 359 355 355 356 355 356
342 329 11 349 352 340 339 356 3 18 31 78 79 70 82 93 103 110 117 121 117 109 100 111 109 123 50 54 51 30 29 31 8 7 14 10 7 6 4 1 3 4 359 0
276 297 355 333 359 2 359 4 8 13 25 60 85 85 90 97 104 111 113 116 114 99 87 79 69 61 52 46 43 35 31 29 23 16 14 16 13 8 8 6 7 7 4 4
Height
1441 1444 1451 1457 1457 1452 1452 1451 1456 1457 1459 1461 1463 1465 1468 1469 1470 1472 1475 1478 1481 1484 1488 1492 1496 1499 1503 1506 1509 1512 1514 1517 1518 1521 1523 1525 1527 1528 1529 1530 1532 1532 1534 1535
1442 1437 1440 1447 1445 1444 1444 1443 1445 1447 1456 1457 1463 1466 1469 1470 1471 1473 1475 1478 1480 1483 1486 1490 1493 1497 1500 1503 1506 1509 1511 1513 1515 1517 1519 1521 1523 1525 1525 1526 1528 1529 1530 1531
1447 1437 1437 1446 1437 1436 1438 1436 1440 1449 1453 1457 1463 1467 1470 1472 1473 1475 1477 1479 1481 1483 1486 1489 1492 1495 1497 1500 1504 1506 1509 1511 1513 1515 1516 1518 1520 1521 1522 1522 1524 1525 1526 1527
1446 1446 1461 1440 1427 1428 1432 1435 1438 1444 1450 1457 1465 1470 1474 1475 1476 1478 1480 1482 1484 1486 1487 1489 1491 1494 1496 1498 1501 1503 1506 1508 1510 1511 1513 1514 1516 1517 1518 1519 1520 1521 1521 1522
1447 1449 1447 1437 1432 1435 1439 1442 1440 1444 1452 1459 1465 1470 1476 1479 1481 1482 1484 1485 1487 1488 1489 1490 1492 1494 1496 1497 1499 1501 1504 1506 1507 1510 1510 1512 1513 1514 1515 1515 1516 1517 1517 1518
1446 1451 1458 1447 1439 1438 1442 1451 1445 1446 1452 1458 1465 1470 1480 1482 1484 1486 1487 1488 1490 1491 1492 1493 1495 1497 1497 1500 1501 1503 1505 1507 1508 1509 1510 1510 1511 1512 1512 1512 1513 1514 1514 1514
1440 1445 1446 1444 1443 1444 1458 1457 1447 1447 1452 1457 1462 1470 1479 1483 1487 1489 1490 1492 1493 1494 1496 1498 1500 1500 1501 1503 1504 1506 1507 1508 1510 1510 1510 1510 1510 1510 1511 1510 1510 1510 1511 1511
1438 1445 1456 1448 1445 1452 1454 1449 1449 1450 1455 1460 1466 1473 1479 1485 1489 1492 1494 1496 1497 1498 1500 1502 1503 1504 1504 1505 1506 1508 1509 1509 1510 1510 1510 1510 1510 1510 1510 1509 1509 1509 1509 1509
1448 1452 1451 1450 1452 1453 1452 1451 1451 1454 1459 1463 1469 1476 1482 1487 1491 1494 1497 1499 1501 1503 1504 1506 1507 1508 1508 1509 1509 1509 1510 1510 1510 1510 1510 1511 1511 1510 1510 1509 1509 1508 1508 1507
1452 1451 1452 1452 1452 1455 1455 1455 1455 1458 1462 1467 1472 1479 1484 1489 1493 1497 1500 1503 1505 1506 1508 1509 1510 1511 1511 1512 1511 1512 1512 1512 1512 1512 1512 1511 1511 1510 1509 1508 1507 1506 1505 1505
1451 1452 1453 1455 1456 1456 1457 1458 1460 1462 1466 1470 1475 1482 1487 1492 1496 1500 1503 1506 1508 1510 1511 1512 1513 1514 1514 1514 1514 1514 1514 1514 1513 1513 1512 1511 1510 1509 1508 1507 1506 1505 1503 1502
1455 1456 1457 1458 1458 1458 1460 1463 1464 1467 1471 1476 1480 1485 1490 1495 1499 1503 1506 1508 1511 1512 1514 1515 1515 1516 1516 1516 1516 1515 1515 1514 1514 1513 1511 1510 1509 1508 1506 1505 1503 1502 1500 1498
1456 1456 1457 1459 1461 1462 1465 1467 1470 1473 1476 1481 1486 1490 1494 1498 1502 1505 1508 1510 1512 1514 1515 1516 1516 1517 1517 1517 1516 1516 1515 1514 1513 1512 1511 1509 1508 1506 1504 1503 1501 1498 1496 1494
1458 1459 1461 1464 1466 1468 1470 1473 1476 1479 1483 1487 1491 1494 1498 1501 1504 1507 1510 1512 1513 1515 1516 1516 1517 1517 1517 1517 1517 1516 1515 1514 1512 1511 1509 1507 1506 1504 1502 1500 1498 1495 1493 1490
1462 1464 1466 1469 1471 1474 1477 1479 1482 1486 1489 1493 1496 1499 1502 1504 1507 1509 1511 1513 1514 1515 1516 1516 1517 1517 1517 1516 1516 1515 1514 1512 1510 1509 1507 1506 1503 1501 1499 1497 1495 1492 1489 1487
1467 1469 1472 1474 1477 1480 1483 1486 1488 1492 1495 1498 1500 1503 1505 1507 1509 1511 1513 1514 1515 1515 1516 1516 1517 1516 1516 1515 1514 1513 1512 1510 1508 1506 1505 1503 1500 1498 1496 1494 1492 1489 1486 1483
1472 1475 1478 1480 1483 1486 1489 1491 1494 1497 1499 1502 1504 1506 1507 1509 1510 1512 1513 1514 1514 1515 1515 1515 1515 1515 1514 1513 1512 1511 1510 1508 1506 1504 1502 1500 1498 1496 1494 1491 1489 1486 1483 1480
1477 1480 1483 1486 1488 1491 1494 1496 1498 1500 1502 1505 1506 1508 1509 1510 1511 1512 1513 1514 1514 1514 1514 1514 1514 1513 1512 1511 1509 1508 1507 1506 1504 1502 1499 1497 1495 1493 1491 1488 1486 1483 1480 1477
1483 1486 1488 1491 1494 1496 1498 1500 1502 1503 1505 1506 1508 1509 1510 1511 1511 1512 1512 1513 1512 1513 1513 1512 1512 1512 1510 1508 1507 1506 1505 1503 1501 1499 1497 1495 1493 1491 1488 1486 1483 1481 1478 1474
1489 1491 1494 1496 1498 1499 1501 1503 1504 1505 1506 1507 1508 1509 1510 1510 1511 1511 1511 1511 1511 1511 1511 1510 1510 1509 1508 1506 1505 1504 1503 1501 1499 1497 1495 1493 1491 1489 1486 1484 1481 1478 1475 1472
1494 1496 1498 1499 1501 1502 1503 1504 1506 1507 1507 1508 1509 1509 1509 1510 1510 1510 1509 1509 1509 1509 1509 1508 1507 1506 1505 1504 1503 1502 1501 1499 1497 1495 1494 1492 1490 1487 1485 1482 1480 1477 1473 1470
1498 1500 1501 1502 1503 1504 1505 1505 1506 1507 1507 1508 1508 1508 1508 1509 1508 1508 1508 1508 1507 1507 1507 1506 1505 1504 1503 1502 1502 1501 1499 1497 1496 1494 1493 1490 1488 1486 1484 1481 1478 1475 1472 1468
1500 1501 1502 1503 1504 1505 1505 1506 1506 1506 1507 1507 1507 1507 1507 1507 1507 1507 1506 1506 1506 1506 1505 1504 1503 1502 1501 1501 1501 1499 1498 1497 1495 1494 1492 1490 1488 1486 1483 1480 1477 1474 1471 1467
1501 1502 1503 1504 1504 1505 1505 1505 1505 1505 1506 1506 1505 1505 1506 1506 1505 1505 1504 1504 1504 1504 1504 1503 1502 1501 1501 1501 1500 1499 1498 1496 1495 1494 1492 1490 1488 1485 1483 1480 1477 1473 1470 1466
1502 1503 1503 1504 1504 1504 1504 1504 1504 1504 1504 1504 1504 1504 1504 1504 1504 1504 1504 1503 1503 1503 1503 1502 1502 1501 1501 1501 1500 1499 1498 1496 1495 1493 1492 1490 1488 1485 1483 1480 1476 1473 1470 1466
1502 1503 1503 1503 1503 1503 1503 1503 1503 1503 1503 1503 1503 1503 1503 1503 1503 1503 1503 1503 1503 1503 1503 1502 1502 1502 1501 1501 1500 1499 1498 1497 1496 1494 1492 1490 1488 1485 1483 1480 1476 1473 1469 1466
1501 1502 1502 1502 1502 1502 1502 1502 1502 1502 1502 1502 1502 1502 1502 1503 1503 1503 1503 1503 1503 1504 1503 1503 1503 1502 1502 1501 1501 1500 1499 1498 1496 1494 1492 1490 1488 1485 1483 1480 1476 1473 1469 1465